Location: Gälforsberget
(66.6500°N, 22.4167°E)
Time: 17:53:45
(UTC+00:00)

SME Rocket - Pass Details

Date: 11 April 2026
Orbit: 550 x 2634 km, 99.9° (Epoch: 16 May)

Event Time Altitude Azimuth Distance (km) Brightness Sun altitude
Rises 20:18:37 0° 23° (NNE) 3,189 7.2 -11.0°
Reaches altitude 10° 20:20:38 10° 29° (NNE) 2,423 6.5 -11.1°
Maximum altitude 20:25:49 50° 106° (ESE) 1,332 4.4 -11.4°
Drops below altitude 10° 20:33:34 10° 180° (S) 3,615 6.4 -11.8°
Enters shadow 20:34:12 - 181° (S) 3,849 6.6 -11.8°
